Notices

What's New in latest Release from April 7th, 2021:

- Updated Glossary, including Speed of Maximum Gust, and Total Hourly Precipitation

- Updated national and regional climate services offices contacts and prices information

- Addition of station inventory lists for 1981-2010, 1971-2000, and 1961-1990 Normals.

If you haven't already, please take our survey and provide feedback about our website: https://eccc.sondage-survey.ca/f/LanguageSelection.aspx?s=442ca660-fcf1-47c0-95a9-59707d6fd709

Hourly Data Report for January 12, 2017

TORONTO CITY
ONTARIO

43°40'00.000" N
79°24'00.000" W
112.50 m
6158355
71508
XTO

Download Data

Hourly Data (January 2017)
Hourly Data Report for January 12, 2017
TIME
LST
Temp Definition
°C
Dew Point Definition
°C
Rel Hum Definition
%
Precip. Amount Definition
mm

Wind Dir Definition
10's deg

Wind Spd Definition
km/h
Visibility Definition
km
Stn Press Definition
kPa
Hmdx Definition


Wind Chill Definition


Weather Definition


00:00 7.6 5.7 88 1.6 LegendMM LegendMM   99.26     LegendNANA
01:00 7.6 6.0 90 1.7 LegendMM LegendMM   99.21     LegendNANA
02:00 7.7 6.9 95 8.6 LegendMM LegendMM   99.05     LegendNANA
03:00 8.7 7.8 94 3.4 LegendMM LegendMM   99.04     LegendNANA
04:00 9.3 8.5 95 1.9 LegendMM LegendMM   99.04     LegendNANA
05:00 9.4 8.7 95 0.0 LegendMM LegendMM   99.04     LegendNANA
06:00 7.7 6.8 94 0.0 LegendMM LegendMM   99.19     LegendNANA
07:00 5.0 3.5 90 0.3 LegendMM LegendMM   99.34     LegendNANA
08:00 3.4 1.6 88 0.0 LegendMM LegendMM   99.48     LegendNANA
09:00 2.9 1.0 87 0.0 LegendMM LegendMM   99.60     LegendNANA
10:00 2.9 0.8 86 0.0 LegendMM LegendMM   99.62     LegendNANA
11:00 3.7 1.3 84 0.0 LegendMM LegendMM   99.71     LegendNANA
12:00 3.2 0.8 85 0.0 LegendMM LegendMM   99.75     LegendNANA
13:00 2.7 1.8 94 1.4 LegendMM LegendMM   99.65     LegendNANA
14:00 3.0 2.0 93 0.0 LegendMM LegendMM   99.64     LegendNANA
15:00 3.3 1.6 88 0.0 LegendMM LegendMM   99.77     LegendNANA
16:00 2.9 0.8 86 0.0 LegendMM LegendMM   99.91     LegendNANA
17:00 1.9 -0.2 86 0.0 LegendMM LegendMM   100.07     LegendNANA
18:00 1.8 -1.1 81 0.0 LegendMM LegendMM   100.23     LegendNANA
19:00 1.5 -1.4 81 0.0 LegendMM LegendMM   100.41     LegendNANA
20:00 1.3 -1.4 82 0.0 LegendMM LegendMM   100.61     LegendNANA
21:00 1.2 -2.9 75 0.0 LegendMM LegendMM   100.73     LegendNANA
22:00 0.9 -3.9 70 0.0 LegendMM LegendMM   100.84     LegendNANA
23:00 -0.1 -5.9 65 0.0 LegendMM LegendMM   100.93     LegendNANA

Notes on Data Quality.

Legend

  • E = Estimated
  • M = Missing
  • NA = Not Available*
  • [empty] = Indicates an unobserved value
Date modified: